Tracking 25701 objects as of 3-Jul-2022
HD Live streaming from Space Station
objects crossing your sky now

FENGYUN 1C DEB

Track FENGYUN 1C DEB now!
10-day predictions


NORAD ID: 30365
Int'l Code: 1999-025ACC
Perigee: 718.2 km
Apogee: 968.5 km
Inclination: 98.6 °
Period: 101.6 minutes
Semi major axis: 7214 km
RCS: 0.026 m2 (small)
Launch date: May 10, 1999
Source: People's Republic of China (PRC)
Launch site: Taiyaun Space Center, China (TSC)

Note: This is SATELLITE DEBRIS
aabbcc
Your satellite tracking list
Your tracking list is empty




NASA's NSSDC Master Catalog

Two Line Element Set (TLE):
1 30365U 99025ACC 22183.80022935  .00000141  00000-0  78491-4 0  9996
2 30365  98.6112 200.1855 0173453 138.5553  33.2287 14.16803388797831
Source of the keplerian elements: AFSPC